User: anonymous   Login
Location: Unspecified
(0.0000°N, 0.0000°E)
Time: 02:10:54
(UTC+00:00)
Language:

STARLINK-5200 - Orbit

View from above orbital plane
View from above orbital plane
View from above satellite
View from above satellite

Ground track
Ground track

The orbit is defined by the following mean orbital elements,

1 54103U          26145.50024440 +.00000000 +00000-0 -25088-5 0 00002
2 54103  53.2136 329.0893 0001271  87.1263 272.9875 15.08837555    04
Epoch (UTC): 25 May 2026 12:00:21
Eccentricity: 0.0001271
inclination: 53.2136°
perigee height: 539 km
apogee height: 541 km
right ascension of ascending node: 329.0893°
argument of perigee: 87.1263°
revolutions per day: 15.08837555
mean anomaly at epoch: 272.9875°

The dashed part of the orbit path shows where the satellite is in the earth's shadow,  

DLR